Theta_e
335 333 331 331 332 333 333 333 333 331 330 332 330 330 328 328 333 332 331 331 330 332 334 333 332 332 331 329 328 326 325 323 323 322 321 320 321 321 321 321 322 323 324
336 335 332 331 330 333 333 334 333 332 330 332 331 330 328 330 332 332 331 332 333 332 332 332 330 328 326 325 323 321 318 317 316 315 317 317 317 318 318 317 317 318 319
337 336 334 331 332 329 332 333 334 333 331 331 329 328 329 331 331 331 332 331 332 331 330 329 327 324 322 320 318 315 315 315 317 316 312 312 312 313 313 313 313 313 314
338 338 336 332 330 331 332 334 334 335 332 331 329 327 330 331 330 330 330 330 330 330 328 326 323 323 322 321 319 315 312 311 310 309 309 308 309 309 308 308 308 308 309
339 339 337 334 331 332 333 335 336 335 333 330 326 327 329 329 330 329 330 329 328 328 324 322 319 317 315 315 315 313 312 310 309 308 308 308 307 307 307 306 306 307 307
339 339 338 336 333 333 335 337 337 336 334 330 324 326 326 327 328 328 329 326 326 325 322 319 317 315 314 314 315 314 312 310 308 307 307 307 306 306 305 306 306 306 307
338 339 339 337 335 334 336 338 337 334 326 324 322 321 321 322 324 325 326 325 324 321 319 317 314 313 313 313 313 313 311 309 307 306 306 306 305 305 304 306 306 306 306
337 338 338 337 335 334 336 337 337 331 325 325 322 320 319 317 316 316 317 319 319 317 316 314 313 313 313 312 312 311 310 308 307 306 305 305 305 305 305 305 304 304 304
338 337 337 336 335 335 335 336 336 333 324 321 323 322 320 322 312 312 312 312 313 312 312 312 312 312 312 311 310 309 306 306 305 305 304 304 305 305 304 304 303 302 303
339 339 339 338 338 337 335 335 333 331 328 322 320 320 318 316 316 311 309 310 309 310 309 311 310 310 310 309 307 306 304 302 303 304 304 304 304 304 303 302 302 302 302
337 338 339 339 338 337 336 334 331 328 327 323 322 318 317 316 313 311 310 307 306 306 306 307 307 307 306 305 304 302 300 303 302 300 301 302 303 302 301 301 300 299 301
335 335 334 333 333 333 332 330 328 326 325 322 319 318 318 315 313 311 310 307 305 303 306 306 307 306 304 303 301 301 301 301 299 298 299 300 301 300 299 299 298 297 298
334 333 332 331 327 328 326 326 324 322 321 319 318 318 318 318 316 313 309 306 305 301 301 302 304 304 304 302 301 301 301 298 299 298 296 298 297 297 296 295 294 294 295
329 329 326 328 326 326 324 322 322 321 320 321 319 317 317 316 316 314 310 307 305 304 301 299 300 301 301 301 300 299 297 297 297 297 294 295 295 294 292 292 291 291 291
327 324 323 323 322 320 320 320 319 318 318 318 317 316 316 315 314 314 314 310 306 305 304 299 297 299 300 299 298 298 295 295 295 294 291 292 292 291 290 290 289 288 288
320 320 319 317 317 317 317 317 316 316 315 316 315 315 314 314 314 313 313 310 308 307 304 301 299 298 298 297 296 296 294 293 292 292 290 291 290 289 288 287 287 287 286
318 317 316 315 314 314 314 314 314 314 313 313 313 313 312 312 311 310 309 309 307 306 301 298 299 297 296 296 295 294 292 292 290 289 289 289 288 287 287 286 285 284 284
316 314 313 312 312 312 311 311 311 312 311 312 310 309 308 307 307 307 307 307 306 305 302 296 294 294 295 295 294 293 291 291 290 287 287 287 286 286 285 284 283 282 282
312 311 311 310 310 310 309 309 310 310 309 309 309 308 306 306 306 305 305 304 303 303 303 299 294 294 292 293 292 291 291 290 288 287 287 286 285 284 283 282 282 282 282
310 309 309 309 309 309 308 308 308 308 307 306 305 304 304 304 304 303 302 302 302 301 301 298 294 293 291 290 292 290 289 288 287 286 286 286 284 283 283 282 281 281 281
310 310 308 307 307 308 308 307 306 305 305 304 303 303 302 302 302 301 301 300 299 299 298 296 293 292 291 289 289 289 288 287 287 286 286 285 284 283 283 281 281 280 281
308 308 308 308 307 307 307 306 306 304 303 301 300 300 300 299 299 299 299 299 297 297 297 295 293 292 291 290 289 288 287 286 285 285 285 284 284 283 283 281 280 280 279
309 308 307 307 307 307 307 305 304 303 301 300 300 298 297 296 296 294 293 293 294 295 296 297 296 294 292 292 291 288 287 286 286 286 285 284 283 283 283 282 281 280 279
307 308 307 306 306 306 306 305 302 300 299 299 299 298 297 294 293 293 292 293 293 293 293 293 294 294 293 293 292 291 289 287 286 286 285 283 283 282 283 281 281 280 279
307 306 307 306 305 306 306 303 301 299 299 298 297 296 295 293 293 293 294 293 292 291 291 292 292 293 293 292 290 290 287 286 284 284 284 284 282 282 282 281 281 280 279
306 306 305 304 305 306 305 302 301 298 296 296 294 293 292 293 294 293 292 292 290 289 289 289 289 290 291 291 290 290 289 286 285 283 283 284 282 282 280 280 280 280 279
Wind_Speed
28 27 25 23 22 20 19 17 15 13 12 11 11 10 9 11 11 10 9 8 7 7 9 9 10 13 16 16 15 15 15 13 9 11 11 11 11 10 10 11 9 6 7
32 30 29 27 25 22 19 17 16 15 14 13 12 11 12 14 13 12 12 10 10 10 12 16 15 18 19 18 17 15 15 15 14 12 8 6 6 4 4 6 4 4 2
34 33 31 28 26 22 21 19 17 14 13 14 12 12 15 16 16 15 14 13 16 17 19 20 18 19 16 15 13 15 12 8 1 4 6 5 4 3 3 5 4 3 3
36 34 31 30 26 24 23 22 20 19 16 15 16 15 17 17 17 17 16 17 23 23 23 20 18 10 8 9 8 5 12 12 12 12 11 12 13 13 13 12 11 8 6
34 33 31 30 26 26 25 24 23 21 20 20 19 19 21 21 21 22 22 21 27 25 23 16 13 10 7 14 14 17 15 14 11 10 10 12 13 13 12 12 11 11 11
32 32 32 30 28 27 27 26 27 24 23 22 18 18 19 20 22 25 25 26 22 24 22 21 19 16 15 17 17 16 11 13 15 10 9 10 12 12 12 12 11 11 11
30 31 32 32 31 31 32 30 27 25 14 22 18 9 10 16 21 23 26 28 25 25 26 23 23 20 19 18 18 17 16 11 13 12 9 9 11 12 11 11 10 11 11
29 29 31 33 34 33 32 31 30 21 17 26 12 9 3 3 7 17 24 27 29 29 26 24 22 21 22 21 18 15 16 14 14 12 9 7 9 13 12 9 8 9 9
25 27 28 31 33 32 35 36 35 31 21 29 25 11 3 3 6 7 15 22 30 28 29 26 22 24 25 26 25 20 18 15 14 11 7 5 8 9 9 9 8 8 8
25 27 27 28 30 32 33 36 33 32 29 25 26 22 6 6 2 2 10 18 17 25 23 25 26 25 26 23 19 17 15 13 12 7 6 5 6 8 9 9 10 10 11
20 21 23 26 27 27 30 33 33 31 34 27 28 21 12 13 11 3 5 5 13 13 15 18 22 22 19 15 16 15 11 7 2 4 6 7 7 9 9 9 9 9 10
15 18 18 20 22 24 26 27 28 29 31 31 26 24 18 10 9 7 3 8 9 12 19 21 23 21 19 16 15 14 11 6 6 7 6 9 11 10 10 9 10 11 10
16 16 15 18 18 19 20 22 23 25 28 25 26 28 29 27 18 16 15 9 4 9 9 17 19 22 20 19 18 15 10 9 8 6 6 10 8 7 8 8 9 9 10
16 16 15 16 16 17 17 18 19 20 24 25 27 26 30 30 24 26 16 19 4 3 6 8 22 21 22 21 18 13 13 12 8 5 8 12 9 7 6 8 9 9 9
13 15 16 17 17 17 17 17 19 19 21 22 23 24 24 24 19 20 23 30 17 4 2 12 9 24 23 20 16 15 15 13 9 5 10 12 8 6 10 8 9 8 9
11 12 14 15 16 15 16 17 18 17 18 19 17 18 20 20 20 20 23 25 23 15 4 6 7 26 26 20 19 17 13 13 12 8 9 12 11 10 7 6 8 8 9
11 12 14 16 16 16 17 18 17 16 16 15 14 15 16 17 16 16 18 19 15 15 11 8 14 17 24 23 21 15 16 13 12 10 11 11 8 7 3 3 4 9 9
11 12 15 16 19 19 19 19 17 17 16 15 16 16 16 15 15 13 15 16 15 9 20 15 18 18 20 22 21 20 17 12 11 11 11 10 7 4 2 3 4 6 8
11 13 16 18 18 18 18 18 18 17 17 18 19 21 23 21 19 16 15 13 13 13 18 21 16 18 22 22 22 18 15 14 14 12 10 9 9 6 5 6 7 7 8
13 15 17 19 21 22 23 20 20 20 21 20 19 19 20 21 20 20 20 17 17 16 17 25 21 20 22 24 23 24 19 17 15 14 13 11 9 6 6 6 5 6 7
16 17 19 21 23 25 25 25 23 24 26 26 25 23 22 21 19 19 21 20 20 23 26 25 19 18 18 23 23 23 20 21 17 17 17 13 11 10 7 5 5 6 7
20 20 23 25 28 28 27 26 25 27 29 30 29 26 23 22 23 20 18 17 21 26 26 21 14 18 20 27 25 27 24 21 7 18 20 17 13 10 7 4 3 5 5
25 27 29 29 33 33 32 30 28 31 31 29 28 27 27 24 23 22 19 19 17 16 17 21 23 21 21 25 27 27 28 26 14 19 23 14 16 14 10 6 3 2 3
28 30 33 33 36 37 35 34 32 32 31 31 31 31 31 30 28 26 24 20 20 18 16 14 16 17 18 21 24 25 30 24 17 16 25 9 19 17 15 10 6 4 1
27 30 35 38 38 41 40 39 36 36 31 32 32 32 31 31 27 24 24 23 19 17 16 15 14 14 16 16 23 22 26 23 9 12 27 12 16 16 16 15 12 9 5
28 29 33 37 42 43 42 39 37 37 34 34 34 30 30 26 25 26 24 23 22 20 18 17 17 19 18 16 19 22 23 23 14 7 21 16 15 14 6 16 16 14 8
Wind_Direction
211 211 211 215 217 216 217 216 210 213 215 219 217 219 213 193 182 178 176 174 185 168 163 162 153 143 132 124 121 117 112 105 99 88 86 79 74 68 74 71 72 72 75
217 218 218 220 215 219 222 227 230 225 218 220 222 214 197 190 188 186 179 171 175 168 152 134 130 121 116 113 112 110 98 93 84 75 66 68 83 105 78 73 64 44 9
221 223 224 221 228 219 226 225 233 236 230 221 216 208 199 194 189 185 177 170 169 164 155 152 146 133 127 112 105 94 93 98 275 269 81 76 91 80 54 38 28 328 318
225 226 227 229 231 231 228 229 227 227 226 224 213 207 202 197 190 181 184 186 170 162 162 162 151 176 179 213 195 137 96 83 84 88 87 82 77 73 68 60 53 41 14
228 231 233 235 235 235 234 232 229 227 223 218 212 202 201 202 192 187 182 186 169 169 160 161 155 152 147 125 125 119 120 108 90 85 87 90 88 78 69 60 53 46 41
231 233 236 239 237 237 237 234 233 228 226 215 203 201 200 199 193 184 186 177 174 179 175 165 160 148 143 139 135 118 117 114 107 96 90 91 91 81 71 65 56 52 46
237 238 240 242 241 239 241 240 235 225 201 198 173 166 184 192 190 188 188 189 188 184 175 166 160 154 149 151 139 135 127 118 107 101 92 92 90 84 74 69 64 57 49
240 243 245 246 247 244 243 241 236 214 196 198 179 143 157 119 190 189 185 184 184 181 171 164 165 156 152 150 142 139 133 127 113 104 98 96 98 95 93 76 65 55 51
238 242 247 250 250 247 246 242 238 224 187 196 197 163 174 221 125 168 203 183 177 171 168 168 161 163 161 157 155 150 139 127 113 111 121 115 97 98 95 90 76 68 60
240 242 246 250 251 252 248 249 238 225 207 192 196 207 187 139 187 147 176 190 180 170 177 169 167 160 156 158 155 160 158 139 120 112 102 96 96 97 82 75 69 63 58
237 240 244 250 251 249 252 250 246 236 220 208 198 188 177 167 168 146 141 165 169 171 173 164 160 157 157 158 160 163 180 173 133 106 104 98 104 95 84 76 68 55 60
249 256 257 261 257 256 252 250 247 239 227 217 205 203 200 180 164 157 124 129 133 156 177 176 173 171 176 179 179 184 182 181 125 111 106 111 113 106 93 84 70 57 47
251 255 256 266 261 261 259 253 246 235 227 211 211 211 213 210 199 171 138 147 137 144 168 186 187 185 188 182 184 187 189 163 148 133 126 142 141 126 111 86 68 64 62
254 256 255 261 258 261 258 252 245 238 234 227 223 222 216 215 204 186 158 145 113 141 160 159 197 197 192 185 191 189 173 169 152 141 149 131 144 145 117 94 84 73 60
254 255 258 253 254 252 246 237 229 219 216 220 221 218 218 211 202 208 195 180 155 150 155 171 166 201 196 191 192 188 182 166 157 157 159 139 146 133 104 99 84 74 70
266 262 261 253 248 239 231 221 216 215 215 215 218 221 223 224 221 216 211 199 188 155 132 147 168 188 194 189 194 192 175 163 152 153 139 145 146 118 113 90 77 74 66
278 274 260 244 231 217 215 215 210 205 202 202 203 215 226 212 207 202 195 187 165 150 121 115 156 175 181 189 190 185 180 171 156 152 149 158 152 141 129 78 80 77 64
272 266 255 239 227 220 213 202 200 197 203 207 209 191 181 170 161 160 157 150 149 134 138 114 131 150 171 193 190 181 181 175 162 151 156 170 144 145 115 79 77 82 74
277 263 250 237 231 226 213 207 205 208 209 203 203 196 179 174 168 167 161 161 154 151 154 156 146 162 159 185 181 184 182 175 165 149 158 144 145 125 106 86 82 83 81
269 263 255 244 232 218 209 212 216 212 206 200 196 194 190 183 185 184 176 174 170 159 158 161 145 149 158 172 184 174 171 174 157 160 163 155 144 131 115 100 73 78 87
261 257 251 246 235 217 217 214 212 209 203 197 195 196 200 195 193 197 184 170 174 165 160 152 148 152 149 159 170 179 173 169 168 168 170 172 162 157 145 130 99 90 98
263 255 249 243 232 226 227 226 218 207 204 198 188 185 189 193 182 189 186 189 187 180 172 165 159 155 166 174 180 177 165 158 157 187 178 181 196 187 182 167 125 92 81
267 258 253 242 234 234 232 226 215 211 204 201 193 184 183 185 180 175 175 170 175 193 203 186 179 179 179 193 188 177 178 178 175 183 184 184 201 210 207 193 184 99 60
266 261 252 247 239 240 240 232 217 215 206 206 200 195 188 184 181 178 180 175 183 190 192 188 201 200 201 197 201 199 194 178 183 184 187 175 201 212 213 203 194 196 234
263 256 259 253 245 245 243 232 213 212 211 212 207 200 193 187 175 184 183 180 176 180 183 184 187 195 198 186 188 186 170 162 140 177 194 194 192 204 210 212 203 210 225
266 265 263 263 255 254 249 236 221 219 205 205 207 199 202 187 183 185 187 183 174 179 176 177 179 187 191 193 190 195 189 168 160 156 202 191 182 186 180 218 211 205 218